Time,TemperatureF,DewpointF,PressureIn,WindDirection,WindDirectionDegrees,WindSpeedMPH,WindSpeedGustMPH,Humidity,HourlyPrecipIn,Conditions,Clouds,dailyrainin,SoftwareType,DateUTC
2013-08-15 00:07:00,82.6,70.0,29.89,NE,52,0.0,-999.0,65,-99.99,,,0.00,weatherlink.com 1.10,2013-08-15 05:07:00,
2013-08-15 00:22:00,82.4,69.0,29.89,ENE,58,0.0,-999.0,65,-99.99,,,0.00,weatherlink.com 1.10,2013-08-15 05:22:00,
2013-08-15 00:37:00,82.2,70.0,29.90,ENE,69,0.0,-999.0,66,-99.99,,,0.00,weatherlink.com 1.10,2013-08-15 05:37:00,
2013-08-15 00:52:00,81.9,69.0,29.89,ENE,63,0.0,-999.0,66,-99.99,,,0.00,weatherlink.com 1.10,2013-08-15 05:52:00,
2013-08-15 01:07:00,81.4,69.0,29.89,ENE,59,1.0,-999.0,67,-99.99,,,0.00,weatherlink.com 1.10,2013-08-15 06:07:00,
2013-08-15 01:22:00,80.9,69.0,29.89,ENE,76,0.0,-999.0,68,-99.99,,,0.00,weatherlink.com 1.10,2013-08-15 06:22:00,
2013-08-15 01:37:00,80.5,70.0,29.89,ENE,66,0.0,-999.0,70,-99.99,,,0.00,weatherlink.com 1.10,2013-08-15 06:37:00,
2013-08-15 01:52:00,80.0,70.0,29.89,NE,46,0.0,-999.0,71,-99.99,,,0.00,weatherlink.com 1.10,2013-08-15 06:52:00,
2013-08-15 02:08:00,79.6,70.0,29.88,ENE,71,1.0,-999.0,73,-99.99,,,0.00,weatherlink.com 1.10,2013-08-15 07:08:00,
2013-08-15 02:23:00,79.3,70.0,29.88,ENE,59,0.0,-999.0,74,-99.99,,,0.00,weatherlink.com 1.10,2013-08-15 07:23:00,
2013-08-15 02:38:00,78.9,70.0,29.87,East,90,0.0,-999.0,75,-99.99,,,0.00,weatherlink.com 1.10,2013-08-15 07:38:00,
2013-08-15 02:53:00,78.7,71.0,29.87,ENE,63,0.0,-999.0,76,-99.99,,,0.00,weatherlink.com 1.10,2013-08-15 07:53:00,
2013-08-15 03:08:00,78.5,70.0,29.87,ENE,63,0.0,-999.0,76,-99.99,,,0.00,weatherlink.com 1.10,2013-08-15 08:08:00,
2013-08-15 03:23:00,78.4,70.0,29.88,ENE,63,0.0,-999.0,76,-99.99,,,0.00,weatherlink.com 1.10,2013-08-15 08:23:00,
2013-08-15 03:38:00,78.2,70.0,29.87,ENE,59,0.0,-999.0,77,-99.99,,,0.00,weatherlink.com 1.10,2013-08-15 08:38:00,
2013-08-15 03:53:00,78.0,70.0,29.87,NE,55,0.0,-999.0,77,-99.99,,,0.00,weatherlink.com 1.10,2013-08-15 08:53:00,
2013-08-15 04:08:00,78.0,71.0,29.87,NNE,13,0.0,-999.0,78,-99.99,,,0.00,weatherlink.com 1.10,2013-08-15 09:08:00,
2013-08-15 04:23:00,77.8,70.0,29.87,NNE,13,0.0,-999.0,78,-99.99,,,0.00,weatherlink.com 1.10,2013-08-15 09:23:00,
2013-08-15 04:38:00,77.6,70.0,29.87,NNE,13,0.0,-999.0,78,-99.99,,,0.00,weatherlink.com 1.10,2013-08-15 09:38:00,
2013-08-15 04:54:00,77.4,70.0,29.87,NNE,13,0.0,-999.0,78,-99.99,,,0.00,weatherlink.com 1.10,2013-08-15 09:54:00,
2013-08-15 05:09:00,77.1,70.0,29.87,NNE,13,0.0,-999.0,79,-99.99,,,0.00,weatherlink.com 1.10,2013-08-15 10:09:00,
2013-08-15 05:24:00,77.1,71.0,29.88,NNE,13,0.0,-999.0,80,-99.99,,,0.00,weatherlink.com 1.10,2013-08-15 10:24:00,
2013-08-15 05:39:00,76.9,70.0,29.88,NNE,13,0.0,-999.0,80,-99.99,,,0.00,weatherlink.com 1.10,2013-08-15 10:39:00,
2013-08-15 05:54:00,76.7,70.0,29.88,NNE,13,0.0,-999.0,80,-99.99,,,0.00,weatherlink.com 1.10,2013-08-15 10:54:00,
2013-08-15 06:09:00,76.5,70.0,29.88,NNE,13,0.0,-999.0,81,-99.99,,,0.00,weatherlink.com 1.10,2013-08-15 11:09:00,
2013-08-15 06:24:00,76.4,70.0,29.89,NNE,14,0.0,-999.0,81,-99.99,,,0.00,weatherlink.com 1.10,2013-08-15 11:24:00,
2013-08-15 06:39:00,76.2,70.0,29.89,NNE,14,0.0,-999.0,81,-99.99,,,0.00,weatherlink.com 1.10,2013-08-15 11:39:00,
2013-08-15 06:54:00,76.1,70.0,29.89,NNE,14,0.0,-999.0,82,-99.99,,,0.00,weatherlink.com 1.10,2013-08-15 11:54:00,
2013-08-15 07:09:00,75.8,70.0,29.89,NNE,14,0.0,-999.0,82,-99.99,,,0.00,weatherlink.com 1.10,2013-08-15 12:09:00,
2013-08-15 07:24:00,75.7,70.0,29.89,NNE,14,0.0,-999.0,82,-99.99,,,0.00,weatherlink.com 1.10,2013-08-15 12:24:00,
2013-08-15 07:39:00,75.5,70.0,29.90,NNE,14,0.0,-999.0,84,-99.99,,,0.00,weatherlink.com 1.10,2013-08-15 12:39:00,
2013-08-15 07:55:00,75.5,70.0,29.90,NNE,14,0.0,-999.0,84,-99.99,,,0.00,weatherlink.com 1.10,2013-08-15 12:55:00,
2013-08-15 08:10:00,75.6,71.0,29.91,NNE,14,0.0,-999.0,85,-99.99,,,0.00,weatherlink.com 1.10,2013-08-15 13:10:00,
2013-08-15 08:25:00,76.0,71.0,29.91,NNE,14,0.0,-999.0,85,-99.99,,,0.00,weatherlink.com 1.10,2013-08-15 13:25:00,
2013-08-15 08:40:00,76.5,72.0,29.91,NNE,14,0.0,-999.0,86,-99.99,,,0.00,weatherlink.com 1.10,2013-08-15 13:40:00,
2013-08-15 08:55:00,77.4,73.0,29.92,NNE,14,0.0,-999.0,85,-99.99,,,0.00,weatherlink.com 1.10,2013-08-15 13:55:00,
2013-08-15 09:10:00,78.3,73.0,29.92,NNE,14,0.0,-999.0,83,-99.99,,,0.00,weatherlink.com 1.10,2013-08-15 14:10:00,
2013-08-15 09:25:00,80.2,73.0,29.92,NE,38,0.0,-999.0,79,-99.99,,,0.00,weatherlink.com 1.10,2013-08-15 14:25:00,
2013-08-15 09:40:00,81.5,74.0,29.92,NE,38,0.0,-999.0,77,-99.99,,,0.00,weatherlink.com 1.10,2013-08-15 14:40:00,
2013-08-15 09:55:00,83.0,73.0,29.91,West,259,0.0,-999.0,72,-99.99,,,0.00,weatherlink.com 1.10,2013-08-15 14:55:00,
2013-08-15 10:10:00,85.1,73.0,29.91,East,81,0.0,-999.0,68,-99.99,,,0.00,weatherlink.com 1.10,2013-08-15 15:10:00,
2013-08-15 10:25:00,85.9,72.0,29.91,NE,44,0.0,-999.0,63,-99.99,,,0.00,weatherlink.com 1.10,2013-08-15 15:25:00,
2013-08-15 10:41:00,86.6,71.0,29.92,NE,46,0.0,-999.0,59,-99.99,,,0.00,weatherlink.com 1.10,2013-08-15 15:41:00,
2013-08-15 10:56:00,87.0,68.0,29.91,ENE,64,1.0,-999.0,54,-99.99,,,0.00,weatherlink.com 1.10,2013-08-15 15:56:00,
2013-08-15 11:11:00,88.7,68.0,29.92,NE,54,0.0,-999.0,51,-99.99,,,0.00,weatherlink.com 1.10,2013-08-15 16:11:00,
2013-08-15 11:26:00,90.1,68.0,29.92,NE,38,0.0,-999.0,49,-99.99,,,0.00,weatherlink.com 1.10,2013-08-15 16:26:00,
2013-08-15 11:41:00,91.9,69.0,29.92,East,80,0.0,-999.0,48,-99.99,,,0.00,weatherlink.com 1.10,2013-08-15 16:41:00,
2013-08-15 11:56:00,93.5,69.0,29.91,SSW,207,0.0,-999.0,45,-99.99,,,0.00,weatherlink.com 1.10,2013-08-15 16:56:00,
2013-08-15 12:11:00,92.5,69.0,29.91,East,95,0.0,-999.0,46,-99.99,,,0.00,weatherlink.com 1.10,2013-08-15 17:11:00,
2013-08-15 12:26:00,94.0,68.0,29.91,SSW,205,1.0,-999.0,43,-99.99,,,0.00,weatherlink.com 1.10,2013-08-15 17:26:00,
2013-08-15 12:57:00,98.3,69.0,29.89,ENE,65,2.0,-999.0,38,-99.99,,,0.00,weatherlink.com 1.10,2013-08-15 17:57:00,
2013-08-15 13:12:00,98.3,68.0,29.89,ENE,78,4.0,-999.0,37,-99.99,,,0.00,weatherlink.com 1.10,2013-08-15 18:12:00,
2013-08-15 13:27:00,97.8,68.0,29.88,SSW,202,0.0,-999.0,38,-99.99,,,0.00,weatherlink.com 1.10,2013-08-15 18:27:00,
2013-08-15 13:42:00,98.7,67.0,29.88,East,94,0.0,-999.0,36,-99.99,,,0.00,weatherlink.com 1.10,2013-08-15 18:42:00,
2013-08-15 14:12:00,100.1,65.0,29.86,East,98,0.0,-999.0,32,-99.99,,,0.00,weatherlink.com 1.10,2013-08-15 19:12:00,
2013-08-15 14:27:00,102.1,67.0,29.85,SW,235,0.0,-999.0,32,-99.99,,,0.00,weatherlink.com 1.10,2013-08-15 19:27:00,
2013-08-15 14:43:00,102.0,67.0,29.84,West,265,0.0,-999.0,32,-99.99,,,0.00,weatherlink.com 1.10,2013-08-15 19:43:00,
2013-08-15 14:58:00,103.3,66.0,29.84,NNW,327,0.0,-999.0,30,-99.99,,,0.00,weatherlink.com 1.10,2013-08-15 19:58:00,
2013-08-15 15:12:00,102.5,67.0,29.83,SW,227,0.0,-999.0,31,-99.99,,,0.00,weatherlink.com 1.10,2013-08-15 20:12:00,
2013-08-15 15:28:00,101.4,66.0,29.83,ENE,76,1.0,-999.0,31,-99.99,,,0.00,weatherlink.com 1.10,2013-08-15 20:28:00,
2013-08-15 15:58:00,99.6,65.0,29.81,NE,55,0.0,-999.0,32,-99.99,,,0.00,weatherlink.com 1.10,2013-08-15 20:58:00,
2013-08-15 16:13:00,99.5,66.0,29.81,WSW,256,0.0,-999.0,33,-99.99,,,0.00,weatherlink.com 1.10,2013-08-15 21:13:00,
2013-08-15 16:43:00,99.8,65.0,29.80,ENE,69,0.0,-999.0,32,-99.99,,,0.00,weatherlink.com 1.10,2013-08-15 21:43:00,
2013-08-15 16:58:00,99.3,66.0,29.80,ENE,61,0.0,-999.0,34,-99.99,,,0.00,weatherlink.com 1.10,2013-08-15 21:58:00,
2013-08-15 17:13:00,99.0,66.0,29.80,ENE,61,0.0,-999.0,34,-99.99,,,0.00,weatherlink.com 1.10,2013-08-15 22:13:00,
2013-08-15 17:28:00,95.8,68.0,29.82,West,270,3.0,-999.0,40,-99.99,,,0.00,weatherlink.com 1.10,2013-08-15 22:28:00,
2013-08-15 17:44:00,91.4,69.0,29.82,NW,315,1.0,-999.0,48,-99.99,,,0.00,weatherlink.com 1.10,2013-08-15 22:44:00,
2013-08-15 17:58:00,88.8,69.0,29.83,NNW,333,2.0,-999.0,52,-99.99,,,0.00,weatherlink.com 1.10,2013-08-15 22:58:00,
2013-08-15 18:14:00,87.4,69.0,29.83,North,11,0.0,-999.0,55,-99.99,,,0.00,weatherlink.com 1.10,2013-08-15 23:14:00,
2013-08-15 18:44:00,85.4,68.0,29.82,ENE,57,0.0,-999.0,57,-99.99,,,0.00,weatherlink.com 1.10,2013-08-15 23:44:00,
2013-08-15 18:59:00,85.8,69.0,29.82,NE,43,0.0,-999.0,57,-99.99,,,0.00,weatherlink.com 1.10,2013-08-15 23:59:00,
2013-08-15 19:14:00,86.7,70.0,29.83,ENE,67,0.0,-999.0,58,-99.99,,,0.00,weatherlink.com 1.10,2013-08-16 00:14:00,
2013-08-15 19:29:00,87.1,70.0,29.83,East,101,0.0,-999.0,57,-99.99,,,0.00,weatherlink.com 1.10,2013-08-16 00:29:00,
2013-08-15 19:44:00,87.2,70.0,29.84,East,101,0.0,-999.0,57,-99.99,,,0.00,weatherlink.com 1.10,2013-08-16 00:44:00,
2013-08-15 19:59:00,87.0,70.0,29.85,ENE,65,0.0,-999.0,58,-99.99,,,0.00,weatherlink.com 1.10,2013-08-16 00:59:00,
2013-08-15 20:14:00,86.6,72.0,29.86,East,83,0.0,-999.0,61,-99.99,,,0.00,weatherlink.com 1.10,2013-08-16 01:14:00,
2013-08-15 20:44:00,83.9,71.0,29.90,North,5,0.0,-999.0,65,-99.99,,,0.00,weatherlink.com 1.10,2013-08-16 01:44:00,
2013-08-15 20:59:00,83.2,71.0,29.89,North,355,4.0,-999.0,66,-99.99,,,0.00,weatherlink.com 1.10,2013-08-16 01:59:00,
2013-08-15 21:14:00,81.3,72.0,29.89,North,351,0.0,-999.0,73,-99.99,,,0.00,weatherlink.com 1.10,2013-08-16 02:14:00,
2013-08-15 21:29:00,79.3,71.0,29.89,NE,40,0.0,-999.0,76,-99.99,,,0.00,weatherlink.com 1.10,2013-08-16 02:29:00,
2013-08-15 21:45:00,78.5,72.0,29.90,NNE,18,1.0,-999.0,79,-99.99,,,0.00,weatherlink.com 1.10,2013-08-16 02:45:00,
2013-08-15 22:00:00,78.0,71.0,29.91,East,82,0.0,-999.0,80,-99.99,,,0.00,weatherlink.com 1.10,2013-08-16 03:00:00,
2013-08-15 22:15:00,77.7,71.0,29.91,North,10,0.0,-999.0,81,-99.99,,,0.00,weatherlink.com 1.10,2013-08-16 03:15:00,
2013-08-15 22:30:00,77.4,72.0,29.92,NE,56,1.0,-999.0,82,-99.99,,,0.00,weatherlink.com 1.10,2013-08-16 03:30:00,
2013-08-15 22:45:00,77.1,72.0,29.92,ESE,106,0.0,-999.0,83,-99.99,,,0.00,weatherlink.com 1.10,2013-08-16 03:45:00,
2013-08-15 23:00:00,76.8,72.0,29.92,NE,34,0.0,-999.0,84,-99.99,,,0.00,weatherlink.com 1.10,2013-08-16 04:00:00,
2013-08-15 23:15:00,76.7,72.0,29.92,NE,34,0.0,-999.0,84,-99.99,,,0.00,weatherlink.com 1.10,2013-08-16 04:15:00,
2013-08-15 23:30:00,76.6,72.0,29.92,NE,36,0.0,-999.0,84,-99.99,,,0.00,weatherlink.com 1.10,2013-08-16 04:30:00,
2013-08-15 23:45:00,76.5,72.0,29.93,NE,37,0.0,-999.0,85,-99.99,,,0.00,weatherlink.com 1.10,2013-08-16 04:45:00,